Highgate, VT

11:20 AM EDT on August 23, 2019 (GMT -0400)
Franklin County State

Weather History for KFSO - June, 2019

Change the Weather History Date:

Friday, June 7, 2019

  Actual Average (KPBG) Record (KPBG)
Temperature  
Mean Temperature 64 °F -  
Max Temperature 82 °F 73 °F 93 °F (2008)
Min Temperature 46 °F 51 °F 37 °F (2015)
Degree Days  
Heating Degree Days 2    
Growing Degree Days 14 (Base 50)    
Moisture  
Dew Point 48 °F    
Average Humidity 58    
Maximum Humidity 95    
Minimum Humidity 28    
Precipitation  
Precipitation 0.00 in - - ()
Sea Level Pressure  
Sea Level Pressure 29.92 in    
Wind  
Wind Speed 2 mph (SW)    
Max Wind Speed 7 mph    
Max Gust Speed -    
Visibility 10 miles    
Events      
Averages and records for this station are not official NWS values.
T = Trace of Precipitation, MM = Missing Value Source: NWS Daily Summary

Daily Weather History Graph

Daily Weather History Graph

Search for Another Location

Airport or City:

Astronomy

Jun. 07, 2019 Rise Set
Actual Time 5:06 AM EDT 8:36 PM EDT
Civil Twilight 4:29 AM EDT 9:13 PM EDT
Nautical Twilight 3:41 AM EDT 10:01 PM EDT
Astronomical Twilight 2:39 AM EDT 11:04 PM EDT
Moon 9:23 AM EDT (6/7) No Moon Set
Length of Visible Light 16h 43m
Length of Day
15h 29m
Waxing Crescent, 22% of the Moon is Illuminated
Jun 7
Waxing Crescent
Jun 10
First Quarter
Jun 17
Full
Jun 25
Last Quarter
Jul 2
New

Hourly Weather History & Observations

Time (EDT) Temp. Windchill Dew Point Humidity Pressure Visibility Wind Dir Wind Speed Gust Speed Precip Events Conditions
12:15 AM 51.1 °F - 49.5 °F 94% 29.88 in 10.0 mi Calm Calm - N/A   Clear
12:36 AM 51.8 °F - 50.2 °F 94% 29.89 in 10.0 mi SSE 3.5 mph - N/A   Clear
12:55 AM 51.8 °F - 50.4 °F 95% 29.89 in 10.0 mi SSE 3.5 mph - N/A   Clear
1:15 AM 50.5 °F - 49.1 °F 95% 29.89 in 10.0 mi Calm Calm - N/A   Clear
1:36 AM 49.1 °F - 47.5 °F 94% 29.89 in 10.0 mi Calm Calm - N/A   Clear
1:55 AM 50.2 °F - 48.9 °F 95% 29.89 in 10.0 mi SSW 3.5 mph - N/A   Clear
2:15 AM 50.4 °F - 46.9 °F 88% 29.88 in 10.0 mi SSE 3.5 mph - N/A   Clear
2:36 AM 48.6 °F - 46.6 °F 93% 29.87 in 10.0 mi Calm Calm - N/A   Clear
2:56 AM 47.7 °F - 46.4 °F 95% 29.87 in 10.0 mi Calm Calm - N/A   Clear
3:15 AM 49.1 °F - 47.8 °F 95% 29.87 in 10.0 mi South 3.5 mph - N/A   Clear
3:36 AM 48.6 °F - 47.1 °F 95% 29.87 in 10.0 mi South 4.6 mph - N/A   Clear
3:55 AM 52.0 °F - 49.3 °F 90% 29.87 in 10.0 mi South 4.6 mph - N/A   Clear
4:15 AM 52.5 °F - 48.2 °F 85% 29.88 in 10.0 mi SSW 3.5 mph - N/A   Clear
4:36 AM 52.7 °F - 48.4 °F 85% 29.88 in 10.0 mi Calm Calm - N/A   Clear
4:55 AM 51.1 °F - 46.9 °F 86% 29.89 in 10.0 mi Calm Calm - N/A   Clear
5:15 AM 48.0 °F - 45.7 °F 92% 29.90 in 10.0 mi Calm Calm - N/A   Clear
5:36 AM 46.4 °F 45.2 °F 44.6 °F 93% 29.90 in 10.0 mi SSE 3.5 mph - N/A   Clear
5:55 AM 46.4 °F - 44.6 °F 93% 29.91 in 10.0 mi Calm Calm - N/A   Clear
6:15 AM 50.0 °F - 48.4 °F 94% 29.91 in 10.0 mi SSE 3.5 mph - N/A   Clear
6:36 AM 54.1 °F - 49.6 °F 85% 29.92 in 10.0 mi Calm Calm - N/A   Clear
6:55 AM 56.3 °F - 49.5 °F 78% 29.93 in 10.0 mi Calm Calm - N/A   Clear
7:15 AM 58.1 °F - 50.7 °F 76% 29.93 in 10.0 mi South 3.5 mph - N/A   Clear
7:36 AM 59.5 °F - 49.8 °F 70% 29.93 in 10.0 mi SSW 3.5 mph - N/A   Clear
7:55 AM 61.7 °F - 50.5 °F 67% 29.94 in 10.0 mi Calm Calm - N/A   Clear
8:15 AM 63.7 °F - 50.0 °F 61% 29.95 in 10.0 mi SW 3.5 mph - N/A   Clear
8:36 AM 63.0 °F - 48.6 °F 59% 29.95 in 10.0 mi Calm Calm - N/A   Clear
8:55 AM 64.2 °F - 49.8 °F 59% 29.95 in 10.0 mi SSE 3.5 mph - N/A   Clear
9:15 AM 65.7 °F - 48.2 °F 53% 29.95 in 10.0 mi SSW 3.5 mph - N/A   Clear
9:36 AM 66.9 °F - 48.9 °F 52% 29.95 in 10.0 mi SW 4.6 mph - N/A   Clear
9:55 AM 68.0 °F - 48.7 °F 50% 29.94 in 10.0 mi Calm Calm - N/A   Clear
10:15 AM 69.1 °F - 50.0 °F 51% 29.94 in 10.0 mi Calm Calm - N/A   Clear
10:35 AM 71.1 °F - 50.5 °F 48% 29.93 in 10.0 mi SE 5.8 mph - N/A   Clear
10:55 AM 72.0 °F - 46.0 °F 40% 29.92 in 10.0 mi SSW 5.8 mph - N/A   Clear
11:15 AM 73.6 °F - 44.6 °F 35% 29.92 in 10.0 mi SSW 4.6 mph - N/A   Clear
11:35 AM 74.3 °F - 48.0 °F 39% 29.92 in 10.0 mi SW 3.5 mph - N/A   Clear
11:56 AM 74.8 °F - 50.9 °F 43% 29.92 in 10.0 mi SSW 3.5 mph - N/A   Clear
12:15 PM 75.2 °F - 50.0 °F 41% 29.92 in 10.0 mi West 4.6 mph - N/A   Clear
12:35 PM 76.3 °F - 47.8 °F 37% 29.92 in 10.0 mi West 4.6 mph - N/A   Clear
12:56 PM 77.0 °F - 47.5 °F 35% 29.92 in 10.0 mi SW 3.5 mph - N/A   Clear
1:15 PM 77.9 °F - 47.3 °F 34% 29.91 in 10.0 mi Calm Calm - N/A   Clear
1:35 PM 78.6 °F - 47.3 °F 33% 29.90 in 10.0 mi WSW 3.5 mph - N/A   Clear
1:56 PM 79.0 °F - 45.3 °F 30% 29.90 in 7.0 mi WNW 4.6 mph - N/A   Clear
2:15 PM 79.9 °F - 43.7 °F 28% 29.90 in 10.0 mi WNW 4.6 mph - N/A   Clear
2:36 PM 79.9 °F - 47.8 °F 32% 29.89 in 10.0 mi NW 3.5 mph - N/A   Clear
2:56 PM 80.4 °F - 48.2 °F 32% 29.90 in 10.0 mi West 4.6 mph - N/A   Scattered Clouds
3:15 PM 81.0 °F - 48.6 °F 32% 29.90 in 10.0 mi Calm Calm - N/A   Scattered Clouds
3:35 PM 80.6 °F - 49.1 °F 33% 29.90 in 10.0 mi SW 4.6 mph - N/A   Clear
3:56 PM 81.0 °F - 49.1 °F 33% 29.90 in 10.0 mi SW 4.6 mph - N/A   Clear
4:15 PM 81.1 °F - 48.7 °F 32% 29.90 in 10.0 mi Calm Calm - N/A   Clear
4:36 PM 81.1 °F - 46.4 °F 29% 29.90 in 10.0 mi West 5.8 mph - N/A   Clear
4:56 PM 81.0 °F - 45.5 °F 29% 29.90 in 10.0 mi WNW 5.8 mph - N/A   Clear
5:15 PM 81.3 °F - 46.4 °F 29% 29.90 in 10.0 mi WNW 3.5 mph - N/A   Clear
5:35 PM 80.1 °F - 45.1 °F 29% 29.90 in 10.0 mi WNW 6.9 mph - N/A   Clear
5:55 PM 78.6 °F - 43.9 °F 29% 29.90 in 10.0 mi WNW 4.6 mph - N/A   Clear
6:15 PM 79.7 °F - 44.1 °F 28% 29.90 in 10.0 mi WNW 6.9 mph - N/A   Scattered Clouds
6:35 PM 79.0 °F - 45.9 °F 31% 29.91 in 10.0 mi WNW 5.8 mph - N/A   Overcast
6:56 PM 78.1 °F - 45.7 °F 32% 29.92 in 10.0 mi NW 3.5 mph - N/A   Scattered Clouds
7:15 PM 77.9 °F - 44.4 °F 30% 29.92 in 10.0 mi WNW 5.8 mph - N/A   Clear
7:35 PM 77.0 °F - 41.9 °F 28% 29.93 in 10.0 mi NW 5.8 mph - N/A   Clear
7:56 PM 75.7 °F - 42.8 °F 31% 29.94 in 10.0 mi NW 3.5 mph - N/A   Clear
8:15 PM 73.9 °F - 43.7 °F 34% 29.94 in 10.0 mi Calm Calm - N/A   Clear
8:35 PM 72.9 °F - 44.1 °F 36% 29.95 in 4.0 mi Calm Calm - N/A   Haze
8:55 PM 71.6 °F - 44.8 °F 38% 29.97 in 10.0 mi NNE 6.9 mph - N/A   Clear
9:15 PM 67.6 °F - 47.3 °F 48% 29.97 in 10.0 mi NE 5.8 mph - N/A   Clear
9:35 PM 67.1 °F - 48.2 °F 51% 29.99 in 10.0 mi ENE 3.5 mph - N/A   Clear
9:56 PM 66.0 °F - 48.4 °F 53% 30.00 in 10.0 mi ENE 4.6 mph - N/A   Clear
10:15 PM 64.4 °F - 49.1 °F 58% 30.00 in 10.0 mi Calm Calm - N/A   Clear
10:35 PM 63.9 °F - 49.3 °F 59% 30.01 in 10.0 mi Calm Calm - N/A   Clear
10:55 PM 60.8 °F - 50.0 °F 68% 30.02 in 10.0 mi Calm Calm - N/A   Clear
11:15 PM 58.8 °F - 51.3 °F 76% 30.03 in 10.0 mi East 3.5 mph - N/A   Clear
11:36 PM 57.4 °F - 51.6 °F 81% 30.04 in 10.0 mi Calm Calm - N/A   Clear
11:56 PM 57.0 °F - 52.2 °F 84% 30.04 in 10.0 mi Calm Calm - N/A   Clear